Temperature
7 7 7 7 7 7 7 7 6 6 6 6 5 5 5 5 5 5 5 5 5 5 5 5 5 5 5 5 5 5 5 5 5 4 4 4 4 3
7 7 7 6 6 6 6 6 6 5 5 5 5 4 4 4 4 4 4 4 4 4 4 4 4 4 4 4 4 4 4 4 4 4 4 3 3 3
6 6 6 6 6 6 6 6 5 5 4 4 4 4 4 4 4 4 3 3 3 3 3 3 3 3 3 3 3 3 3 3 3 3 3 3 2 2
5 5 5 5 5 5 5 5 5 5 4 3 3 3 3 3 3 3 3 3 2 2 2 2 2 2 3 3 3 3 2 2 2 2 2 2 2 2
5 5 5 5 5 5 5 4 4 4 4 3 3 3 3 2 2 2 2 2 2 2 2 2 2 2 2 2 2 2 2 2 2 2 1 1 1 1
4 4 4 4 4 4 4 4 3 3 3 3 2 2 2 1 1 2 1 1 1 1 1 1 1 1 1 1 1 1 1 1 1 1 1 1 1 0
4 3 3 3 3 3 3 3 2 2 2 1 1 1 0 0 0 1 0 1 0 0 0 0 1 1 1 1 1 1 1 1 1 0 0 0 0 -0
3 3 3 2 2 2 2 2 2 1 1 1 0 -0 -1 -1 -1 -1 -0 -0 -1 -1 -0 -0 -0 -0 -0 -0 -0 -0 -0 -0 -0 -0 -0 -1 -1 -1
2 2 2 2 2 2 2 1 1 1 0 -0 -0 -1 -1 -1 -1 -1 -1 -1 -1 -2 -1 -1 -1 -1 -1 -1 -1 -1 -1 -1 -1 -1 -1 -1 -1 -1
2 2 1 1 1 1 1 1 0 -0 -0 -1 -1 -1 -1 -2 -2 -2 -2 -2 -2 -2 -2 -2 -2 -2 -2 -2 -2 -2 -2 -2 -2 -2 -2 -2 -2 -2
1 1 1 1 1 0 0 0 -0 -0 -1 -1 -1 -2 -2 -2 -2 -2 -2 -3 -3 -3 -3 -3 -3 -2 -2 -2 -2 -2 -3 -3 -2 -2 -2 -2 -2 -2
1 1 1 0 0 -0 -0 -0 -1 -1 -1 -1 -2 -2 -2 -2 -3 -3 -3 -3 -4 -4 -4 -4 -4 -3 -3 -3 -3 -3 -3 -3 -3 -3 -3 -3 -3 -3
1 1 0 0 -0 -0 -1 -1 -1 -2 -2 -2 -2 -2 -3 -3 -3 -3 -4 -4 -4 -4 -4 -5 -4 -4 -4 -4 -3 -3 -3 -3 -3 -3 -3 -3 -3 -3
0 0 0 -0 -0 -1 -1 -1 -1 -2 -2 -2 -3 -3 -3 -3 -4 -4 -4 -4 -4 -4 -5 -5 -5 -5 -5 -4 -3 -3 -3 -4 -4 -3 -3 -3 -4 -4
0 0 -0 -0 -1 -1 -1 -1 -2 -2 -2 -3 -3 -3 -3 -4 -4 -4 -4 -4 -4 -5 -5 -5 -5 -5 -5 -5 -4 -4 -3 -3 -4 -4 -4 -4 -4 -4
0 -0 -0 -1 -1 -1 -1 -1 -2 -2 -3 -3 -3 -4 -4 -4 -4 -4 -4 -4 -4 -4 -5 -5 -5 -5 -5 -5 -5 -4 -4 -4 -4 -5 -5 -4 -4 -4
-0 -0 -0 -0 -1 -1 -1 -2 -2 -2 -3 -3 -4 -4 -4 -4 -4 -5 -5 -5 -5 -4 -4 -5 -5 -6 -6 -6 -5 -5 -5 -5 -5 -5 -5 -5 -4 -5
-0 -0 -0 -0 -1 -1 -1 -2 -2 -3 -3 -3 -4 -4 -4 -4 -5 -5 -5 -5 -5 -5 -5 -5 -6 -6 -6 -6 -5 -5 -5 -5 -6 -6 -7 -6 -5 -5
-1 -0 -0 -1 -1 -2 -2 -2 -3 -3 -3 -3 -4 -4 -4 -5 -5 -5 -5 -5 -5 -5 -5 -6 -7 -7 -8 -8 -6 -6 -6 -6 -7 -7 -7 -7 -7 -5
-0 -1 -1 -1 -2 -2 -3 -3 -3 -3 -3 -3 -4 -4 -5 -5 -5 -5 -5 -6 -6 -6 -6 -6 -7 -8 -9 -9 -8 -6 -6 -7 -7 -7 -7 -7 -7 -6
-1 -1 -1 -2 -2 -2 -3 -3 -3 -3 -4 -4 -4 -4 -5 -5 -5 -5 -6 -6 -6 -6 -6 -6 -7 -8 -9 -10 -9 -6 -6 -7 -8 -8 -8 -8 -8 -7
-1 -1 -2 -2 -2 -3 -3 -3 -4 -4 -4 -4 -4 -5 -5 -5 -5 -6 -6 -6 -7 -7 -7 -7 -7 -8 -9 -9 -9 -8 -6 -6 -7 -8 -8 -8 -10 -9
-1 -2 -2 -3 -3 -3 -3 -4 -4 -4 -4 -4 -4 -5 -5 -6 -6 -6 -7 -7 -7 -7 -8 -8 -8 -8 -9 -9 -10 -9 -8 -7 -7 -7 -6 -7 -8 -8
Wind_Speed
3 3 3 3 3 3 2 1 1 2 2 2 3 4 8 9 11 10 10 11 12 13 12 12 11 10 8 8 8 7 8 9 9 11 10 8 6 4
3 4 3 3 3 3 3 2 1 1 1 2 3 3 6 7 9 9 9 11 13 13 13 12 11 10 10 9 8 9 9 9 8 7 7 6 4 3
4 4 5 4 3 3 3 3 3 2 0 1 2 3 4 4 6 7 9 9 10 13 13 13 12 11 11 11 10 9 8 6 4 4 3 3 3 3
5 5 4 4 5 4 4 4 3 3 2 1 2 3 3 3 3 4 5 6 8 9 11 11 11 10 9 8 7 6 5 3 2 1 1 1 2 4
5 5 5 5 5 4 4 4 3 3 2 2 2 2 1 1 2 2 2 3 5 6 7 8 8 7 7 6 5 4 3 2 1 2 2 3 4 5
6 6 6 6 5 4 4 3 3 2 2 2 1 1 0 0 1 2 2 3 3 5 6 6 5 5 5 5 4 4 3 3 3 4 4 5 5 6
6 6 6 7 7 6 4 4 4 3 2 1 1 1 1 2 2 2 3 3 2 3 4 4 4 4 4 3 3 2 3 4 5 6 6 7 8 8
5 4 5 5 6 7 8 7 6 4 3 2 1 1 2 2 3 3 3 3 3 3 4 4 3 2 3 1 1 2 4 6 7 7 8 9 9 10
4 3 3 3 4 3 4 5 5 6 5 2 2 2 2 2 2 3 2 1 2 3 2 3 3 3 3 2 3 4 6 7 7 8 8 9 9 10
3 2 2 2 3 3 3 3 2 2 3 4 4 3 3 3 3 1 1 2 3 2 1 1 3 3 4 7 4 3 4 5 6 7 8 9 9 10
2 2 2 3 3 3 2 1 1 1 2 2 1 1 2 3 3 2 3 3 2 2 2 1 3 4 4 3 3 3 4 5 6 7 8 9 10 11
3 2 2 2 1 1 1 2 1 1 1 0 2 2 2 2 1 2 2 1 0 2 2 2 3 4 4 4 4 6 7 7 8 9 10 11 11 10
2 2 3 4 2 2 1 1 1 1 2 2 2 2 1 1 1 2 2 2 2 3 1 2 2 2 2 4 4 5 6 6 8 10 11 12 13 12
2 2 3 5 3 3 3 3 3 2 2 2 2 2 1 1 1 1 1 2 4 6 6 2 2 2 2 3 5 4 5 8 9 7 10 12 13 13
3 4 5 5 4 3 5 5 3 2 2 3 3 2 2 2 2 1 4 6 8 10 11 10 6 4 4 4 5 5 5 5 7 5 6 6 7 8
4 5 6 7 5 5 5 4 3 4 3 3 2 2 1 2 2 2 2 2 3 5 7 11 12 7 5 7 8 9 7 6 5 4 5 7 11 12
5 3 3 3 4 4 4 5 4 4 4 3 3 2 2 2 3 3 2 2 3 4 5 3 9 12 10 7 7 10 10 9 9 7 7 9 8 10
7 4 5 5 6 5 5 5 4 5 4 4 4 3 3 3 3 3 3 4 5 6 6 4 3 3 4 7 12 12 10 9 7 7 7 8 11 8
7 5 6 6 5 5 5 5 5 5 4 4 4 4 4 4 4 4 4 4 5 6 6 4 4 4 7 9 6 11 8 6 6 7 7 8 11 9
6 7 7 6 6 6 6 5 5 5 5 5 5 5 5 5 5 5 5 6 6 6 6 5 5 6 8 8 7 6 9 8 8 10 9 8 10 15
8 8 7 7 6 6 6 6 6 6 5 5 5 6 5 5 6 6 6 10 9 7 8 8 7 11 7 5 8 8 6 13 14 10 8 9 12 12
8 8 7 7 7 6 6 6 6 6 6 6 6 6 6 6 7 7 7 7 7 8 9 8 6 5 5 8 12 14 13 11 14 21 22 20 10 7
9 8 7 7 7 6 6 7 8 7 7 7 6 6 6 6 6 7 7 8 8 8 9 9 7 7 9 10 11 12 15 14 12 11 12 19 24 29
Wind_Direction
47 52 60 47 43 32 27 55 189 225 235 109 90 48 45 53 34 27 22 21 25 25 28 28 30 36 50 67 80 107 122 135 152 164 173 181 190 209
59 72 66 58 54 38 29 29 36 193 218 85 83 61 47 44 33 26 21 28 31 30 33 35 39 48 59 73 80 88 98 108 117 131 142 152 172 203
75 76 71 64 68 51 40 41 37 32 211 95 87 62 55 40 23 23 28 30 30 35 37 38 43 50 59 64 69 74 80 88 108 133 164 196 216 228
87 85 80 75 68 52 53 52 43 33 41 91 77 54 51 33 18 21 24 27 29 31 35 39 43 47 50 54 58 63 64 66 65 53 325 269 267 268
72 75 71 79 73 60 57 49 36 40 42 70 73 60 52 18 11 8 15 20 25 24 29 31 32 35 36 37 39 37 31 19 348 317 300 294 291 287
72 68 63 67 69 64 63 42 32 45 54 73 89 88 76 330 31 13 1 8 5 13 16 9 7 10 11 14 20 18 5 342 310 292 283 280 280 279
84 78 74 75 72 67 66 43 34 42 49 51 53 22 21 47 33 14 4 343 356 22 1 342 339 335 330 338 350 353 336 317 301 289 280 275 273 272
100 91 89 71 76 73 68 61 54 56 48 32 357 38 51 52 37 25 18 14 342 357 8 324 325 321 308 335 353 328 314 305 297 288 282 278 275 273
109 102 101 92 70 63 66 66 61 58 53 52 54 48 65 54 51 22 20 2 285 289 359 316 327 327 310 306 301 300 302 299 293 287 283 279 276 272
113 106 104 108 83 63 60 55 46 66 59 61 71 56 65 53 46 16 329 328 303 299 68 310 319 323 321 315 293 274 292 298 297 294 289 282 278 275
148 108 87 108 101 62 48 357 316 197 135 104 55 9 1 359 1 30 16 24 340 331 21 19 325 327 319 315 287 261 283 290 294 295 293 289 283 280
180 175 149 133 119 44 20 350 355 32 61 343 291 275 256 261 346 99 130 129 302 312 353 32 356 358 332 313 327 324 310 299 299 297 295 292 286 281
176 184 183 176 208 270 294 297 270 11 349 316 295 266 229 200 128 97 104 144 181 242 333 51 358 341 299 301 309 311 314 311 309 302 299 297 292 283
189 186 179 182 224 260 268 261 266 308 316 298 285 267 222 169 134 105 312 269 239 243 266 247 221 229 277 291 287 298 307 301 297 293 294 295 293 289
195 192 190 211 240 266 263 258 259 251 264 267 263 248 206 183 175 262 278 272 268 267 261 244 215 229 226 250 273 289 307 291 281 282 287 282 276 276
215 224 230 238 238 247 258 257 232 226 230 237 254 241 194 187 217 228 249 279 292 288 265 245 227 211 235 248 260 272 272 276 292 286 284 280 273 267
189 189 196 214 223 230 229 227 223 227 237 226 238 246 245 241 241 228 225 240 258 278 293 275 243 230 230 239 261 266 270 270 269 275 278 280 272 263
201 200 214 220 223 224 222 218 216 218 217 213 216 225 238 245 253 254 240 241 258 268 274 278 281 283 267 253 239 256 262 266 269 265 263 277 283 269
216 215 222 224 223 218 214 214 220 219 210 206 211 219 226 235 243 251 254 256 260 266 267 264 259 260 277 285 271 237 240 260 272 274 266 266 277 281
217 221 224 222 218 215 215 217 219 218 211 211 213 218 220 227 238 245 249 252 261 271 275 266 252 247 254 268 274 272 253 256 269 275 277 275 275 282
221 222 221 219 216 214 214 213 213 214 214 211 216 218 219 222 236 243 248 261 265 267 269 269 255 264 262 263 270 272 261 260 263 264 270 278 285 285
221 221 219 216 213 211 210 210 214 217 218 219 222 222 220 222 234 241 246 253 258 260 267 273 268 265 254 261 269 279 287 283 276 275 270 266 266 272
221 218 216 212 211 209 208 211 215 220 219 219 221 222 220 227 233 241 247 251 257 262 270 278 277 268 265 264 270 277 282 288 290 286 276 268 264 263
Height
1517 1517 1517 1517 1518 1518 1519 1519 1520 1520 1520 1519 1518 1518 1517 1516 1514 1513 1511 1510 1509 1508 1507 1506 1506 1506 1506 1507 1508 1510 1511 1513 1516 1518 1520 1522 1523 1525
1513 1513 1513 1513 1513 1514 1514 1514 1515 1516 1516 1516 1515 1514 1513 1512 1511 1510 1509 1508 1507 1506 1506 1505 1505 1505 1505 1506 1507 1508 1509 1511 1512 1514 1516 1518 1519 1521
1509 1508 1508 1509 1509 1509 1510 1510 1510 1511 1512 1512 1512 1511 1510 1509 1508 1507 1507 1506 1505 1505 1504 1504 1504 1504 1504 1505 1506 1506 1507 1509 1510 1511 1513 1514 1515 1516
1505 1505 1505 1505 1505 1506 1506 1506 1507 1507 1508 1508 1508 1507 1507 1506 1505 1505 1504 1504 1503 1503 1503 1503 1503 1503 1503 1504 1504 1505 1506 1506 1507 1508 1509 1510 1511 1511
1502 1502 1502 1502 1502 1503 1503 1503 1503 1503 1504 1504 1504 1504 1503 1503 1503 1502 1502 1502 1501 1501 1501 1501 1501 1501 1501 1501 1502 1502 1503 1503 1504 1504 1505 1505 1506 1506
1499 1499 1499 1499 1499 1500 1500 1500 1500 1500 1500 1500 1500 1500 1500 1499 1499 1499 1499 1499 1498 1498 1498 1498 1498 1498 1498 1498 1498 1498 1499 1499 1499 1499 1499 1500 1500 1501
1496 1496 1496 1497 1497 1497 1497 1497 1497 1497 1497 1497 1497 1497 1497 1496 1496 1496 1496 1495 1495 1495 1495 1495 1495 1494 1494 1494 1494 1494 1494 1494 1494 1494 1494 1495 1495 1495
1494 1494 1494 1494 1494 1494 1494 1494 1495 1495 1494 1494 1494 1494 1493 1493 1493 1493 1492 1492 1492 1492 1492 1492 1491 1491 1490 1490 1490 1490 1489 1489 1489 1489 1489 1489 1490 1490
1492 1492 1492 1492 1492 1492 1492 1492 1492 1492 1492 1492 1491 1491 1491 1491 1491 1490 1490 1489 1489 1489 1489 1488 1488 1487 1487 1486 1486 1486 1485 1485 1485 1485 1485 1485 1485 1485
1490 1490 1490 1490 1490 1490 1489 1489 1489 1490 1489 1489 1489 1489 1489 1489 1488 1488 1487 1487 1487 1486 1486 1486 1485 1484 1484 1483 1483 1482 1482 1481 1481 1481 1480 1480 1480 1480
1488 1488 1488 1488 1488 1487 1487 1487 1487 1487 1487 1487 1487 1487 1486 1486 1486 1485 1485 1485 1484 1484 1484 1483 1482 1482 1481 1480 1480 1479 1479 1478 1478 1477 1477 1476 1476 1476
1486 1486 1486 1486 1486 1485 1485 1485 1485 1485 1485 1485 1485 1484 1484 1484 1483 1483 1483 1483 1482 1482 1481 1481 1480 1479 1478 1478 1477 1477 1476 1475 1474 1474 1473 1472 1471 1471
1484 1484 1484 1484 1484 1483 1483 1483 1483 1483 1482 1482 1482 1482 1481 1481 1481 1481 1481 1481 1480 1480 1480 1479 1478 1477 1476 1475 1474 1474 1472 1471 1470 1469 1468 1467 1467 1466
1482 1482 1482 1482 1482 1481 1481 1481 1480 1480 1480 1479 1479 1479 1479 1479 1479 1479 1478 1478 1477 1477 1477 1476 1475 1474 1472 1470 1469 1469 1468 1467 1466 1464 1463 1462 1461 1461
1480 1479 1479 1479 1479 1479 1478 1478 1478 1477 1477 1477 1476 1476 1476 1476 1476 1476 1475 1475 1474 1474 1473 1472 1471 1470 1469 1467 1465 1463 1462 1461 1460 1459 1458 1457 1456 1455
1477 1477 1477 1476 1476 1476 1476 1475 1475 1474 1474 1474 1473 1473 1473 1473 1473 1472 1472 1471 1471 1471 1470 1469 1467 1466 1464 1462 1460 1458 1457 1456 1455 1453 1451 1450 1449 1448
1473 1473 1473 1473 1473 1473 1472 1472 1472 1471 1471 1471 1470 1470 1470 1469 1469 1468 1468 1467 1466 1465 1465 1464 1462 1461 1459 1457 1454 1453 1451 1450 1448 1446 1444 1442 1442 1441
1469 1469 1469 1469 1469 1469 1468 1468 1468 1467 1467 1467 1466 1466 1466 1465 1465 1464 1463 1462 1461 1460 1459 1458 1457 1454 1453 1450 1450 1447 1445 1444 1442 1440 1438 1435 1432 1433
1464 1464 1465 1465 1465 1465 1464 1464 1464 1463 1463 1462 1462 1462 1461 1461 1460 1459 1459 1457 1456 1455 1454 1453 1451 1449 1447 1443 1442 1442 1439 1437 1435 1433 1431 1429 1425 1424
1459 1459 1460 1460 1460 1460 1459 1459 1459 1459 1458 1458 1457 1457 1456 1456 1455 1454 1453 1452 1451 1449 1448 1447 1446 1444 1442 1439 1435 1433 1434 1431 1428 1425 1423 1421 1418 1416
1454 1454 1454 1454 1454 1454 1454 1454 1453 1453 1453 1452 1452 1452 1451 1450 1449 1449 1448 1447 1445 1444 1442 1441 1440 1439 1436 1433 1429 1424 1426 1425 1422 1419 1415 1412 1409 1406
1447 1447 1448 1448 1448 1448 1448 1448 1448 1447 1447 1447 1446 1446 1445 1444 1444 1443 1442 1441 1439 1438 1436 1435 1433 1431 1429 1426 1421 1418 1416 1416 1414 1412 1409 1407 1404 1398
1440 1440 1441 1441 1441 1441 1442 1441 1441 1441 1441 1441 1440 1440 1439 1438 1438 1437 1436 1434 1433 1431 1429 1427 1426 1424 1421 1419 1416 1412 1409 1407 1405 1402 1401 1400 1397 1394